User: anonymous
Location: Karlovy Vary
(50.2170°N, 12.9000°E)
Time: 06:54:18
(UTC+02:00)
Language:

ISS - Orbit

View from above orbital plane
View from above orbital plane
View from above satellite
View from above satellite

Ground track
Ground track

The orbit data is extracted from the following two-line orbital elements,

1 25544U 98067A   14258.62114583  .00020813  00000-0  36769-3 0   900
2 25544 051.6464 011.3578 0002371 110.6135 071.8358 15.50308234905358
Epoch (UTC): 15 September 2014 14:54:27
Eccentricity: 0.0002371
inclination: 51.6464°
perigee height: 414 km
apogee height: 417 km
right ascension of ascending node: 11.3578°
argument of perigee: 110.6135°
revolutions per day: 15.50308234
mean anomaly at epoch: 71.8358°
orbit number at epoch: 90535

The dashed part of the orbit path shows where the satellite is in the earth's shadow,  

DLR